User: anonymous   Login
Location: Unspecified
(40.7945°N, 111.1337°W)
Time: 06:38:27
(UTC-06:00)
Language:

CZ-3 Stage 3 - Orbit

View from above orbital plane
View from above orbital plane
View from above satellite
View from above satellite

Ground track
Ground track

The orbit data is extracted from the following two-line orbital elements,

1 14900U 84035B   19288.63393494 -.00000026  00000-0  12948-3 0  9999
2 14900  30.4739 116.5277 7163868  89.2427 344.8337  2.33883874234650
Epoch (UTC): 15 October 2019 15:12:51
Eccentricity: 0.7163868
inclination: 30.4739°
perigee height: 421 km
apogee height: 34769 km
right ascension of ascending node: 116.5277°
argument of perigee: 89.2427°
revolutions per day: 2.33883874
mean anomaly at epoch: 344.8337°
orbit number at epoch: 23465

The dashed part of the orbit path shows where the satellite is in the earth's shadow,  

DLR